Location: La Oliva
(42.2466°N, 2.9955°E)
Time: 10:34:55
(UTC+00:00)

SL-4 R/B - Pass Details

Date: 22 April 2021
Orbit: 427 x 663 km, 51.6° (Epoch: 11 May)

Event Time Altitude Azimuth Distance (km) Brightness Sun altitude
Rises 21:23:12 0° 264° (W) 2,796 6.1 -26.1°
Reaches altitude 10° 21:25:33 10° 273° (W) 1,937 5.3 -26.4°
Maximum altitude 21:29:41 36° 341° (NNW) 987 3.7 -26.9°
Enters shadow 21:33:36 12° 46° (NE) 1,886 4.8 -27.3°
